Regional Weather Roundup
Issued by NWS

Home | Current Version | Previous Version | Graphics & Text | Print | Product List | Glossary On
Versions: 1 2 3 4 5 6 7 8 9 10 11 12 13 14 15 16 17 18 19 20 21 22 23 24 25 26 27 28 29 30 31 32 33 34 35 36 37 38 39 40 41 42 43 44 45 46 47 48 49 50
000
ASUS43 KFSD 302002
RWRSD

WEATHER ROUNDUP FOR SOUTH DAKOTA
NATIONAL WEATHER SERVICE SIOUX FALLS SD
300 PM CDT SUN APR 30 2017

NOTE: "FAIR" INDICATES FEW OR NO CLOUDS BELOW 12,000 FEET WITH NO
SIGNIFICANT WEATHER AND/OR OBSTRUCTIONS TO VISIBILITY.


SDZ001>005-009-010-012>017-302100-
NORTHWEST AND NORTH CENTRAL SOUTH DAKOTA

CITY           SKY/WX    TMP DP  RH WIND       PRES   REMARKS
BUFFALO          N/A     59  19  21 W7        29.87F
FAITH            N/A     59  22  24 N12       29.90F
MOBRIDGE       CLOUDY    63  21  20 E13G21    29.88F
$$

SDZ012>016-024>037-041>051-057-063-072>074-302100-
SOUTHWEST AND SOUTH CENTRAL SOUTH DAKOTA

CITY           SKY/WX    TMP DP  RH WIND       PRES   REMARKS
RAPID CTY ARPT SUNNY     59  24  26 N13G20    29.91F
PIERRE         PTSUNNY   58  23  26 NE15G24   29.87F
CUSTER         SUNNY     51  17  26 MISG      29.91F
ELLSWORTH AFB  SUNNY     57  22  25 N10       29.91F
PHILIP         CLOUDY    59  22  24 NE18G25   29.89F
PINE RIDGE     CLOUDY    56  20  24 N15G30    29.89F
SPEARFISH      FAIR      55  23  28 E8G14     29.94F
WINNER         FAIR      52  18  26 NE21G30   29.84F
$$

SDZ004>011-016>023-039-040-302100-
NORTHEAST SOUTH DAKOTA

CITY           SKY/WX    TMP DP  RH WIND       PRES   REMARKS
ABERDEEN       PTSUNNY   57  15  19 NE22G28   29.89F
WATERTOWN      CLOUDY    47  23  38 NE16G25   29.85F
BROOKINGS      LGT RAIN  42  32  67 NE20G28   29.82S
SISSETON         N/A     56  22  26 E15G26    29.88F
$$

SDZ017-020-022-023-036>040-048>070-302100-
SOUTHEAST SOUTH DAKOTA

CITY           SKY/WX    TMP DP  RH WIND       PRES   REMARKS
SIOUX FALLS    LGT RAIN  42  42 100 NE29G36   29.75F FOG
HURON          CLOUDY    51  23  33 NE20G28   29.83F
CHAMBERLAIN    CLOUDY    52  26  37 N15       29.84F
MITCHELL       LGT RAIN  43  32  65 NE20G26   29.84F
YANKTON        CLOUDY    39  36  87 N18G25    29.73F
$$

ABBREVIATIONS USED IN REMARKS
   TC - TEMPERATURE IN CELSIUS
  WCI - WIND CHILL INDEX
   HX - HEAT INDEX
  VSB - VISIBILITY




USA.gov is the U.S. government's official web portal to all federal, state and local government web resources and services.